Weather History for Washington, GA

Change the Weather History Date:

Monday, December 10, 2012

  Actual Average (KDBN) Record (KDBN)
Temperature  
Mean Temperature 62 °F -  
Max Temperature 68 °F 64 °F 81 °F (1966)
Min Temperature 55 °F 37 °F 19 °F (1977)
Degree Days  
Heating Degree Days 4    
Growing Degree Days 12 (Base 50)    
Moisture  
Dew Point 59 °F    
Average Humidity 91    
Maximum Humidity 100    
Minimum Humidity 64    
Precipitation  
Precipitation 0.00 in - - ()
Sea Level Pressure  
Sea Level Pressure 29.84 in    
Wind  
Wind Speed 5 mph (SW)    
Max Wind Speed 14 mph    
Max Gust Speed 20 mph    
Visibility 7 miles    
Events Rain    
Averages and records for this station are not official NWS values.
T = Trace of Precipitation, MM = Missing Value Source: NWS Daily Summary

Daily Weather History Graph

Daily Weather History Graph

Search for Another Location

Airport:

Trip Planner

Search our weather history database for the weather conditions in past years. The results will help you decide how hot, cold, wet, or windy it might be!

Date:

Astronomy

Dec. 10, 2012 Rise Set
Actual Time 7:25 AM EST 5:23 PM EST
Civil Twilight 6:58 AM EST 5:50 PM EST
Nautical Twilight 6:26 AM EST 6:21 PM EST
Astronomical Twilight 5:56 AM EST 6:52 PM EST
Moon 4:13 AM EST (12/10) 3:07 PM EST (12/10)
Length of Visible Light 10h 52m
Length of Day
9h 57m
Waning Crescent, 10% of the Moon is Illuminated
Dec 10
Waning Crescent
Dec 13
New
Dec 20
First Quarter
Dec 28
Full
Jan 4
Last Quarter

Hourly Weather History & Observations

Time (EST) Temp. Dew Point Humidity Pressure Visibility Wind Dir Wind Speed Gust Speed Precip Events Conditions
12:15 AM 59.0 °F 59.0 °F 100% 29.99 in 4.0 mi South 4.6 mph - N/A   Clear
12:35 AM 59.0 °F 59.0 °F 100% 29.98 in 5.0 mi South 3.5 mph - N/A   Clear
12:55 AM 59.0 °F 59.0 °F 100% 29.97 in 5.0 mi South 3.5 mph - N/A   Clear
1:15 AM 59.0 °F 59.0 °F 100% 29.96 in 5.0 mi Calm Calm - N/A   Clear
1:35 AM 59.0 °F 59.0 °F 100% 29.95 in 1.8 mi SSW 3.5 mph - N/A   Scattered Clouds
1:55 AM 59.0 °F 59.0 °F 100% 29.95 in 2.0 mi Calm Calm - N/A   Overcast
2:15 AM 57.2 °F 57.2 °F 100% 29.95 in 0.8 mi Calm Calm - N/A   Overcast
2:35 AM 59.0 °F 59.0 °F 100% 29.95 in 3.0 mi WSW 3.5 mph - N/A   Overcast
3:15 AM 59.0 °F 59.0 °F 100% 29.94 in 4.0 mi WSW 3.5 mph - N/A   Scattered Clouds
3:55 AM 55.4 °F 55.4 °F 100% 29.92 in 0.8 mi Calm Calm - N/A   Mostly Cloudy
4:15 AM 55.4 °F 55.4 °F 100% 29.92 in 0.8 mi Calm Calm - N/A   Overcast
4:35 AM 55.4 °F 55.4 °F 100% 29.92 in 2.5 mi Calm Calm - N/A   Overcast
4:55 AM 57.2 °F - N/A% 29.92 in 4.0 mi SSW 3.5 mph - N/A   Haze
5:15 AM 57.2 °F - N/A% 29.91 in 0.8 mi South 4.6 mph - N/A   Overcast
5:35 AM 55.4 °F - N/A% 29.89 in 2.5 mi SSE 6.9 mph - N/A   Overcast
5:55 AM 55.4 °F - N/A% 29.88 in 2.5 mi South 4.6 mph - N/A   Overcast
6:15 AM 55.4 °F - N/A% 29.87 in 4.0 mi South 4.6 mph - N/A   Haze
6:35 AM 55.4 °F - N/A% 29.88 in 5.0 mi SSW 4.6 mph - N/A   Haze
7:15 AM 55.4 °F - N/A% 29.89 in 5.0 mi SW 5.8 mph - N/A   Haze
7:35 AM 55.4 °F - N/A% 29.88 in 5.0 mi South 3.5 mph - N/A   Haze
7:55 AM 57.2 °F - N/A% 29.88 in 3.0 mi South 4.6 mph - N/A   Overcast
8:15 AM 59.0 °F - N/A% 29.87 in 4.0 mi South 6.9 mph - N/A   Haze
8:35 AM 59.0 °F - N/A% 29.87 in 5.0 mi SSW 8.1 mph - N/A   Haze
8:55 AM 59.0 °F - N/A% 29.87 in 5.0 mi SSW 6.9 mph - N/A   Haze
9:15 AM 59.0 °F - N/A% 29.87 in 7.0 mi SSW 8.1 mph - N/A   Scattered Clouds
9:35 AM 59.0 °F - N/A% 29.87 in 7.0 mi SSW 5.8 mph - N/A   Clear
9:55 AM 60.8 °F - N/A% 29.87 in 10.0 mi SSW 5.8 mph - N/A   Clear
10:15 AM 60.8 °F 60.8 °F 100% 29.87 in 10.0 mi SW 9.2 mph - N/A   Clear
10:35 AM 62.6 °F 59.0 °F 88% 29.87 in 10.0 mi SW 8.1 mph - N/A   Clear
11:15 AM 64.4 °F 57.2 °F 77% 29.87 in 10.0 mi SW 9.2 mph 18.4 mph N/A   Scattered Clouds
11:35 AM 64.4 °F 57.2 °F 77% 29.86 in 10.0 mi WSW 10.4 mph 18.4 mph N/A   Scattered Clouds
11:55 AM 64.4 °F 59.0 °F 83% 29.84 in 10.0 mi SW 8.1 mph 17.3 mph N/A   Scattered Clouds
12:15 PM 64.4 °F 59.0 °F 83% 29.83 in 10.0 mi SSW 8.1 mph - N/A   Scattered Clouds
12:35 PM 64.4 °F 59.0 °F 83% 29.81 in 10.0 mi SSW 8.1 mph - N/A   Scattered Clouds
12:55 PM 64.4 °F 59.0 °F 83% 29.81 in 10.0 mi SSW 9.2 mph - N/A   Scattered Clouds
1:15 PM 66.2 °F 57.2 °F 73% 29.80 in 10.0 mi SW 8.1 mph 16.1 mph N/A   Scattered Clouds
1:35 PM 66.2 °F 57.2 °F 73% 29.79 in 10.0 mi SW 8.1 mph 18.4 mph N/A   Scattered Clouds
1:55 PM 66.2 °F 57.2 °F 73% 29.78 in 10.0 mi SSW 6.9 mph 16.1 mph N/A   Scattered Clouds
2:15 PM 66.2 °F 57.2 °F 73% 29.78 in 10.0 mi SSW 10.4 mph 18.4 mph N/A   Scattered Clouds
2:35 PM 66.2 °F 55.4 °F 68% 29.77 in 10.0 mi SSW 10.4 mph 19.6 mph N/A   Clear
2:55 PM 68.0 °F 55.4 °F 64% 29.77 in 10.0 mi SW 8.1 mph 17.3 mph N/A   Clear
3:15 PM 68.0 °F 55.4 °F 64% 29.78 in 10.0 mi SW 13.8 mph 18.4 mph N/A   Clear
3:35 PM 68.0 °F 55.4 °F 64% 29.78 in 10.0 mi WSW 9.2 mph - N/A   Scattered Clouds
3:55 PM 66.2 °F 57.2 °F 73% 29.78 in 10.0 mi West 4.6 mph - N/A   Scattered Clouds
4:15 PM 66.2 °F 59.0 °F 78% 29.79 in 10.0 mi WNW 11.5 mph 17.3 mph N/A   Mostly Cloudy
4:35 PM 64.4 °F 59.0 °F 83% 29.78 in 10.0 mi WNW 6.9 mph - N/A Rain Light Rain
4:55 PM 60.8 °F 59.0 °F 94% 29.78 in 5.0 mi NW 8.1 mph - N/A Rain Heavy Rain
5:15 PM 60.8 °F 60.8 °F 100% 29.79 in 5.0 mi West 4.6 mph - N/A Rain Rain
5:35 PM 60.8 °F 60.8 °F 100% 29.79 in 5.0 mi SSW 3.5 mph - N/A Rain Heavy Rain
5:55 PM 60.8 °F 60.8 °F 100% 29.78 in 5.0 mi Calm Calm - N/A Rain Rain
6:15 PM 60.8 °F 60.8 °F 100% 29.78 in 7.0 mi SSW 3.5 mph - N/A Rain Light Rain
6:35 PM 60.8 °F 60.8 °F 100% 29.79 in 5.0 mi SSW 3.5 mph - N/A Rain Rain
6:55 PM 60.8 °F 60.8 °F 100% 29.78 in 7.0 mi South 4.6 mph - N/A Rain Light Rain
7:15 PM 60.8 °F 60.8 °F 100% 29.77 in 10.0 mi South 8.1 mph - N/A Rain Light Rain
7:35 PM 60.8 °F 60.8 °F 100% 29.77 in 10.0 mi South 6.9 mph - N/A Rain Light Rain
7:55 PM 60.8 °F 60.8 °F 100% 29.77 in 10.0 mi South 6.9 mph - N/A Rain Light Rain
8:15 PM 60.8 °F 60.8 °F 100% 29.78 in 10.0 mi SSW 4.6 mph - N/A   Light Drizzle
8:35 PM 60.8 °F 60.8 °F 100% 29.78 in 10.0 mi South 5.8 mph - N/A   Clear
8:55 PM 60.8 °F 60.8 °F 100% 29.78 in 10.0 mi SW 3.5 mph - N/A Rain Light Rain
9:15 PM 60.8 °F 60.8 °F 100% 29.78 in 10.0 mi WSW 4.6 mph - N/A   Scattered Clouds
9:55 PM 60.8 °F 60.8 °F 100% 29.78 in 10.0 mi WSW 4.6 mph - N/A   Clear
10:15 PM 60.8 °F 60.8 °F 100% 29.78 in 10.0 mi WSW 3.5 mph - N/A   Clear
10:35 PM 59.0 °F 59.0 °F 100% 29.78 in 10.0 mi SSW 3.5 mph - N/A   Clear
10:55 PM 59.0 °F 59.0 °F 100% 29.79 in 10.0 mi WSW 3.5 mph - N/A   Clear
11:15 PM 59.0 °F 59.0 °F 100% 29.79 in 10.0 mi WSW 4.6 mph - N/A   Clear
11:35 PM 59.0 °F 59.0 °F 100% 29.80 in 10.0 mi WSW 5.8 mph - N/A   Clear
11:55 PM 59.0 °F 59.0 °F 100% 29.79 in 10.0 mi West 5.8 mph - N/A   Scattered Clouds